Location: Austin
(30.3000°N, 97.7500°W)
Time: 23:31:16
(UTC-05:00)

Cosmos 1844 Rocket - Pass Details

Date: 05 September 2024
Orbit: 822 x 845 km, 71.0° (Epoch: 14 September)

Event Time Altitude Azimuth Distance (km) Brightness Sun altitude
Rises 20:26:57 0° 348° (NNW) 3,404 6.2 -9.1°
Reaches altitude 10° 20:29:31 10° 355° (N) 2,467 5.4 -9.6°
Maximum altitude 20:34:55 44° 67° (ENE) 1,151 3.1 -10.8°
Drops below altitude 10° 20:40:16 10° 138° (SE) 2,455 4.6 -11.9°
Enters shadow 20:40:21 10° 139° (SE) 2,484 4.6 -11.9°
